Al Hoceima, Morocco

7:59 PM WEST on August 29, 2016 (GMT +0100)
Cherif Al Idrissi

Weather History for GMTA - February, 2014

Change the Weather History Date:

Saturday, February 8, 2014

  Actual Average Record
Temperature  
Mean Temperature 58 °F -  
Max Temperature 72 °F 62 °F 72 °F (2014)
Min Temperature 45 °F 47 °F 39 °F (2013)
Degree Days  
Heating Degree Days 6    
Growing Degree Days 8 (Base 50)    
Moisture  
Dew Point 41 °F    
Average Humidity 52    
Maximum Humidity 76    
Minimum Humidity 20    
Precipitation  
Precipitation 0.00 in - - ()
Sea Level Pressure  
Sea Level Pressure 30.12 in    
Wind  
Wind Speed 4 mph ()    
Max Wind Speed 12 mph    
Max Gust Speed -    
Visibility 7.5 miles    
Events      
Averages and records for this station are not official NWS values.
T = Trace of Precipitation, MM = Missing Value Source: Averaged Metar Reports

Daily Weather History Graph

Daily Weather History Graph

Search for Another Location

Airport or City:

Trip Planner

Search our weather history database for the weather conditions in past years. The results will help you decide how hot, cold, wet, or windy it might be!

Date:

Astronomy

Feb. 08, 2014 Rise Set
Actual Time 7:08 AM WET 5:50 PM WET
Civil Twilight 6:42 AM WET 6:17 PM WET
Nautical Twilight 6:12 AM WET 6:47 PM WET
Astronomical Twilight 5:42 AM WET 7:16 PM WET
Moon 12:37 PM WET (2/8) 2:05 AM WET (2/8)
Length of Visible Light 11h 34m
Length of Day
10h 42m
Waxing Gibbous, 66% of the Moon is Illuminated
Feb 8
Waxing Gibbous
Feb 14
Full
Feb 22
Last Quarter
Mar 1
New
Mar 8
First Quarter

Hourly Weather History & Observations

Time (WET) Temp. Windchill Dew Point Humidity Pressure Visibility Wind Dir Wind Speed Gust Speed Precip Events Conditions
12:00 AM 50 °F - 41 °F 63% 30.27 in 9 mi South 2.3 mph - -   Scattered Clouds
12:00 AM 50.0 °F - 41.0 °F 71% 30.27 in 6.2 mi South 2.3 mph - N/A   Partly Cloudy
6:00 AM 47 °F - 39 °F 64% 30.18 in 9 mi South 9.2 mph - -  
6:00 AM 46.4 °F 41.9 °F 39.2 °F 76% 30.15 in - South 9.2 mph - N/A   Clear
7:00 AM 46.4 °F 42.9 °F 37.4 °F 71% 30.15 in - South 6.9 mph - N/A   Clear
8:00 AM 46.4 °F - 37.4 °F 71% 30.18 in - East 2.3 mph - N/A   Clear
9:00 AM 55 °F - 43 °F 53% 30.19 in 9 mi SE 2.3 mph - -   Clear
9:00 AM 55.4 °F - 42.8 °F 63% 30.18 in - SE 2.3 mph - N/A   Clear
10:00 AM 57.2 °F - 46.4 °F 67% 30.15 in - NNE 4.6 mph - N/A   Clear
11:00 AM 62.6 °F - 39.2 °F 42% 30.15 in - North 4.6 mph - N/A   Clear
12:00 PM 63 °F - 47 °F 46% 30.17 in 9 mi North 11.5 mph - -   Clear
12:00 PM 62.6 °F - 48.2 °F 59% 30.15 in - North 11.5 mph - N/A   Clear
1:00 PM 64.4 °F - 41.0 °F 42% 30.12 in - North 11.5 mph - N/A   Clear
2:00 PM 64.4 °F - 39.2 °F 40% 30.09 in - North 6.9 mph - N/A   Clear
3:00 PM 70 °F - 38 °F 20% 30.05 in 9 mi SSE 2.3 mph - -   Clear
3:00 PM 69.8 °F - 37.4 °F 31% 30.04 in - Variable 2.3 mph - N/A   Clear
4:00 PM 64.4 °F - 46.4 °F 52% 30.06 in 6.2 mi NNW 6.9 mph - N/A   Mostly Cloudy
5:00 PM 66.2 °F - 42.8 °F 43% 30.06 in 6.2 mi Variable 2.3 mph - N/A   Mostly Cloudy
6:00 PM 62 °F - 42 °F 37% 30.09 in 9 mi ENE 4.6 mph - -   Scattered Clouds
6:00 PM 66.2 °F - 42.8 °F 43% 30.06 in 6.2 mi ENE 4.6 mph - N/A   Mostly Cloudy
7:00 PM 59.0 °F - 41.0 °F 51% 30.06 in 6.2 mi Variable 2.3 mph - N/A   Mostly Cloudy
8:00 PM 60.8 °F - 41.0 °F 48% 30.06 in 6.2 mi WSW 6.9 mph - N/A   Scattered Clouds
9:00 PM 60 °F - 41 °F 38% 30.09 in 9 mi SSW 4.6 mph - -   Scattered Clouds
9:00 PM 60.8 °F - 41.0 °F 48% 30.06 in 6.2 mi SSW 4.6 mph - N/A   Scattered Clouds
10:00 PM 59.0 °F - 41.0 °F 51% 30.06 in 6.2 mi Variable 2.3 mph - N/A   Scattered Clouds
11:00 PM 55.4 °F - 39.2 °F 54% 30.09 in - Variable 2.3 mph - N/A   Clear